When you browse on this site, cookies collect data to enhance your experience and personalize the content and advertising you see.
Visit our Privacy Policy to learn more. By continuing to use the site, you agree to this use of cookies and data.
  • en France
  • Liste des pays
  • À 7 jours
  • Température de l'eau
  • Carte satellitaire
  • Carte météo
  • Widgets météo
  • user-avatar
    Se connecter

    Météo par heure à Leonia

    Ce jour, 17 Décembre, Lundi

    Heure Température Précipitation Vent Pression Humidité
    00:00 -5°C° 0 mm 3 m/s 754 mmHg 85%
    01:00 -5°C° 0 mm 3 m/s 755 mmHg 84%
    02:00 -5°C° 0 mm 3 m/s 755 mmHg 83%
    03:00 -4°C° 0 mm 3 m/s 755 mmHg 83%
    04:00 -4°C° 0 mm 3 m/s 755 mmHg 82%
    05:00 -3°C° 0 mm 2 m/s 755 mmHg 83%
    06:00 -3°C° 0 mm 2 m/s 755 mmHg 83%
    07:00 -3°C° 0 mm 2 m/s 755 mmHg 83%
    08:00 -3°C° 0 mm 2 m/s 755 mmHg 83%
    09:00 -3°C° 0 mm 2 m/s 756 mmHg 82%
    10:00 0°C° 0 mm 1 m/s 756 mmHg 81%
    11:00 0°C° 0 mm 1 m/s 756 mmHg 80%
    12:00 0°C° 0 mm 1 m/s 757 mmHg 79%
    13:00 0°C° 0 mm 1 m/s 757 mmHg 78%
    14:00 0°C° 0 mm 1 m/s 757 mmHg 80%
    15:00 -1°C° 0 mm 1 m/s 757 mmHg 83%
    16:00 -1°C° 0 mm 1 m/s 758 mmHg 86%
    17:00 -1°C° 0 mm 1 m/s 758 mmHg 87%
    18:00 -1°C° 0 mm 1 m/s 758 mmHg 87%
    19:00 -2°C° 0 mm 1 m/s 759 mmHg 88%
    20:00 -2°C° 0 mm 1 m/s 759 mmHg 89%
    21:00 -2°C° 0 mm 1 m/s 760 mmHg 89%
    22:00 -2°C° 0 mm 1 m/s 760 mmHg 90%
    23:00 -2°C° 0 mm 1 m/s 760 mmHg 90%

    Demain, 18 Décembre, Mardi

    Heure Température Précipitation Vent Pression Humidité
    00:00 -2°C° 0 mm 1 m/s 760 mmHg 91%
    01:00 -2°C° 0 mm 1 m/s 761 mmHg 91%
    02:00 -2°C° 0 mm 1 m/s 760 mmHg 92%
    03:00 -2°C° 0 mm 1 m/s 760 mmHg 92%
    04:00 -1°C° 0 mm 1 m/s 760 mmHg 93%
    05:00 -1°C° 0 mm 1 m/s 761 mmHg 93%
    06:00 -1°C° 0 mm 1 m/s 761 mmHg 93%
    07:00 -1°C° 0 mm 1 m/s 761 mmHg 93%
    08:00 -2°C° 0 mm 2 m/s 761 mmHg 93%
    09:00 -1°C° 0 mm 2 m/s 761 mmHg 92%
    10:00 -1°C° 0 mm 2 m/s 761 mmHg 92%
    11:00 -1°C° 0 mm 2 m/s 761 mmHg 92%
    12:00 +1°C° 0 mm 2 m/s 761 mmHg 92%
    13:00 +1°C° 0 mm 2 m/s 761 mmHg 92%
    14:00 +1°C° 0 mm 2 m/s 761 mmHg 92%
    15:00 +1°C° 0 mm 2 m/s 761 mmHg 93%
    16:00 -1°C° 0 mm 2 m/s 761 mmHg 93%
    17:00 -1°C° 0 mm 2 m/s 761 mmHg 93%
    18:00 -1°C° 0 mm 2 m/s 761 mmHg 93%
    19:00 -1°C° 0 mm 2 m/s 761 mmHg 93%
    20:00 -1°C° 0 mm 2 m/s 761 mmHg 93%
    21:00 -1°C° 0 mm 2 m/s 761 mmHg 92%
    22:00 -1°C° 0 mm 2 m/s 761 mmHg 92%
    23:00 -1°C° 0 mm 2 m/s 760 mmHg 92%

    Après-demain, 19 Décembre, Mercredi

    Heure Température Précipitation Vent Pression Humidité
    00:00 -1°C° 0 mm 2 m/s 760 mmHg 92%
    01:00 -1°C° 0 mm 3 m/s 760 mmHg 92%
    02:00 -2°C° 0 mm 3 m/s 760 mmHg 92%
    03:00 -2°C° 0 mm 3 m/s 760 mmHg 93%
    04:00 -2°C° 0 mm 3 m/s 760 mmHg 93%
    05:00 -2°C° 0 mm 3 m/s 760 mmHg 93%
    06:00 -3°C° 0 mm 4 m/s 759 mmHg 92%
    07:00 -4°C° 0 mm 4 m/s 759 mmHg 92%
    08:00 -3°C° 0 mm 4 m/s 759 mmHg 89%
    09:00 -4°C° 0 mm 5 m/s 759 mmHg 86%
    10:00 -4°C° 0 mm 5 m/s 759 mmHg 83%
    11:00 -4°C° 0 mm 5 m/s 759 mmHg 81%
    12:00 -4°C° 0 mm 5 m/s 759 mmHg 79%
    13:00 -2°C° 0 mm 5 m/s 758 mmHg 77%
    14:00 -4°C° 0 mm 5 m/s 758 mmHg 79%
    15:00 -4°C° 0 mm 5 m/s 758 mmHg 80%
    16:00 -4°C° 0 mm 5 m/s 757 mmHg 82%
    17:00 -5°C° 0 mm 5 m/s 757 mmHg 83%
    18:00 -5°C° 0 mm 5 m/s 757 mmHg 83%
    19:00 -5°C° 0 mm 5 m/s 757 mmHg 84%
    20:00 -5°C° 0 mm 5 m/s 757 mmHg 84%
    21:00 -5°C° 0 mm 5 m/s 757 mmHg 84%
    22:00 -5°C° 0 mm 5 m/s 757 mmHg 84%
    23:00 -5°C° 0 mm 5 m/s 757 mmHg 84%

    20 Décembre, Jeudi

    Heure Température Précipitation Vent Pression Humidité
    00:00 -5°C° 0 mm 5 m/s 757 mmHg 84%
    01:00 -5°C° 0 mm 5 m/s 757 mmHg 84%
    02:00 -5°C° 0 mm 5 m/s 756 mmHg 84%
    03:00 -5°C° 0 mm 5 m/s 756 mmHg 84%
    04:00 -5°C° 0 mm 5 m/s 756 mmHg 84%
    05:00 -5°C° 0 mm 5 m/s 756 mmHg 83%
    06:00 -4°C° 0 mm 4 m/s 756 mmHg 83%
    07:00 -4°C° 0 mm 4 m/s 756 mmHg 83%
    08:00 -4°C° 0 mm 4 m/s 756 mmHg 82%
    09:00 -4°C° 0 mm 4 m/s 756 mmHg 81%
    10:00 -3°C° 0 mm 4 m/s 756 mmHg 80%
    11:00 -3°C° 0 mm 4 m/s 756 mmHg 79%
    12:00 -3°C° 0 mm 4 m/s 755 mmHg 79%
    13:00 -2°C° 0 mm 3 m/s 755 mmHg 78%
    14:00 -2°C° 0 mm 3 m/s 755 mmHg 80%
    15:00 -2°C° 0 mm 3 m/s 755 mmHg 81%
    16:00 -2°C° 0 mm 3 m/s 755 mmHg 83%
    17:00 -2°C° 0 mm 3 m/s 755 mmHg 83%
    18:00 -4°C° 0 mm 3 m/s 755 mmHg 84%
    19:00 -4°C° 0 mm 3 m/s 755 mmHg 85%
    20:00 -4°C° 0 mm 3 m/s 755 mmHg 85%
    21:00 -3°C° 0 mm 2 m/s 755 mmHg 86%
    22:00 -3°C° 0 mm 2 m/s 755 mmHg 87%
    23:00 -3°C° 0 mm 2 m/s 755 mmHg 87%

    21 Décembre, Vendredi

    Heure Température Précipitation Vent Pression Humidité
    00:00 -3°C° 0 mm 2 m/s 755 mmHg 88%
    01:00 -3°C° 0 mm 2 m/s 755 mmHg 88%
    02:00 -3°C° 0 mm 2 m/s 755 mmHg 89%
    03:00 -3°C° 0 mm 2 m/s 755 mmHg 90%
    04:00 -1°C° 0 mm 1 m/s 754 mmHg 91%
    05:00 -1°C° 0.1 mm 1 m/s 754 mmHg 92%
    06:00 -1°C° 0.1 mm 1 m/s 754 mmHg 93%
    07:00 -1°C° 0.1 mm 1 m/s 754 mmHg 94%
    08:00 -1°C° 0.2 mm 1 m/s 755 mmHg 94%
    09:00 0°C° 0.2 mm 1 m/s 755 mmHg 94%
    10:00 0°C° 0.2 mm 1 m/s 755 mmHg 94%
    11:00 0°C° 0.1 mm 1 m/s 755 mmHg 93%
    12:00 0°C° 0.1 mm 1 m/s 755 mmHg 93%
    13:00 +1°C° 0.1 mm 1 m/s 754 mmHg 92%
    14:00 0°C° 0 mm 1 m/s 754 mmHg 93%
    15:00 0°C° 0 mm 1 m/s 754 mmHg 94%
    16:00 0°C° 0 mm 1 m/s 754 mmHg 95%
    17:00 0°C° 0 mm 1 m/s 754 mmHg 95%
    18:00 0°C° 0 mm 1 m/s 754 mmHg 95%
    19:00 0°C° 0 mm 1 m/s 754 mmHg 95%
    20:00 0°C° 0 mm 1 m/s 754 mmHg 95%
    21:00 0°C° 0 mm 1 m/s 754 mmHg 95%
    22:00 0°C° 0 mm 1 m/s 754 mmHg 95%
    23:00 -2°C° 0 mm 2 m/s 754 mmHg 95%

    22 Décembre, Samedi

    Heure Température Précipitation Vent Pression Humidité
    00:00 -2°C° 0 mm 2 m/s 754 mmHg 95%
    01:00 -2°C° 0 mm 2 m/s 754 mmHg 95%
    02:00 -2°C° 0 mm 2 m/s 753 mmHg 95%
    03:00 -2°C° 0 mm 2 m/s 753 mmHg 95%
    04:00 -2°C° 0 mm 2 m/s 753 mmHg 95%
    05:00 -2°C° 0 mm 3 m/s 753 mmHg 95%
    06:00 -2°C° 0 mm 3 m/s 753 mmHg 95%
    07:00 -2°C° 0 mm 3 m/s 753 mmHg 95%
    08:00 -1°C° 0 mm 3 m/s 753 mmHg 94%
    09:00 -1°C° 0 mm 3 m/s 753 mmHg 94%
    10:00 -1°C° 0 mm 3 m/s 753 mmHg 93%
    11:00 -1°C° 0 mm 3 m/s 753 mmHg 94%
    12:00 0°C° 0 mm 3 m/s 754 mmHg 94%
    13:00 0°C° 0 mm 3 m/s 754 mmHg 95%
    14:00 +1°C° 0 mm 2 m/s 754 mmHg 95%
    15:00 -1°C° 0 mm 2 m/s 754 mmHg 95%
    16:00 -1°C° 0 mm 2 m/s 755 mmHg 95%
    17:00 -1°C° 0 mm 2 m/s 755 mmHg 95%
    18:00 -1°C° 0 mm 2 m/s 755 mmHg 95%
    19:00 +1°C° 0 mm 1 m/s 756 mmHg 96%
    20:00 +1°C° 0 mm 1 m/s 756 mmHg 95%
    21:00 +1°C° 0 mm 1 m/s 757 mmHg 95%
    22:00 +1°C° 0 mm 1 m/s 757 mmHg 95%
    23:00 +1°C° 0 mm 1 m/s 757 mmHg 95%
    Voir plus